228  
ASUS42 KMHX 241422  
RWRMHX  
WEATHER ROUNDUP FOR EASTERN NORTH CAROLINA  
NATIONAL WEATHER SERVICE NEWPORT/MOREHEAD CITY NC  
1000 AM EDT THU APR 24 2014  
 
NOTE: "FAIR" INDICATES FEW OR NO CLOUDS BELOW 12,000 FEET  
WITH NO SIGNIFICANT WEATHER AND/OR S TO VISIBILITY
 
 
NCZ015>017-031-032-045>047-102-103-241500-  
NORTH COAST  
 
CITY SKY/WX TMP DP RH WIND PRES REMARKS
 
EDENTON SUNNY 57 29 34 N7 30.13S  
ELIZABETH CITY SUNNY 55 31 39 N9 30.12S  
KITTY HAWK SUNNY 53 36 52 N9 30.11R  
MANTEO SUNNY 54 36 50 N13 30.12R  
 

 
 
NCZ045>047-081-094-103-104-241500-  
CENTRAL COAST  
 
CITY SKY/WX TMP DP RH WIND PRES REMARKS
 
FRISCO SUNNY 56 36 47 N9G22 30.12R  
SWANQUARTER N/A 55 N/A N/A N7 30.09S  
 

 
 
NCZ095-097-098-100-101-241500-  
SOUTHERN COAST  
 
CITY SKY/WX TMP DP RH WIND PRES REMARKS
 
BEAUFORT SUNNY 60 38 43 N9 30.13R  
CEDAR ISLAND N/A 57 N/A N/A NW7 30.18R  
JACKSONVILLE SUNNY 59 34 39 N10 30.14R  
NEWPORT N/A 59 36 41 N6 N/A  
PINEY ISLAND SUNNY 58 38 47 N8 30.14R  
WILMINGTON SUNNY 63 35 35 NE13 30.13R  
 

 
 
NCZ011>013-027>030-043-044-078>080-089-090>093-098-241500-  
COASTAL PLAIN  
 
CITY SKY/WX TMP DP RH WIND PRES REMARKS
 
AHOSKIE SUNNY 55 28 35 N10 30.14S  
CLINTON SUNNY 58 37 45 E6 30.15S  
ELIZABETHTOWN SUNNY 59 36 42 NE5 30.14S  
GOLDSBORO SUNNY 56 32 40 NE6 30.14R  
GREENVILLE SUNNY 55 30 38 N8 30.16R  
HAVELOCK SUNNY 58 36 43 NE9 30.15R  
KENANSVILLE SUNNY 56 33 40 E6 30.16S  
KINSTON SUNNY 57 27 30 NE10 30.16R  
NEW BERN SUNNY 58 34 40 CALM 30.16R  
RICHLANDS SUNNY 59 55 88 N10 30.16R  
ROANOKE RAPIDS NOT AVBL  
ROCKY MOUNT SUNNY 56 31 38 N7 30.15R  
WASHINGTON SUNNY 58 20 23 N7 30.15S  
WHITEVILLE SUNNY 60 35 39 NE9 30.13R  
 

 
 
AMZ130-135-150-152-154-156-158-170-250-252-270-ANZ085-086-088-633-658-670-241500-  
MARINE OBSERVATIONS  
 
STATION/POSITION TIME TEMP WIND PRES WAVE SWELL
 
AIR SEA DIR/SP/G HT/PER HT/PER  
(UTC) (F) (DEG/KT/KT) (MB) (FT/S) (FT/S)  
CHESAPEAKE LIGHT 1400 49 330/ 17/ 18 1020.0  
BUOY 44014 1400 49 48 320/ 14/ 17 1018.7 6/ 6 2/ 9  
DUCK 1400 50 52 20/ 13/ 15 1018.7  
2E DUCK 1400 51 N/A 3/ 5  
OREGON INLET 1400 53 54 340/ 11/ 14 1020.0  
BUOY 44095 1400 49 N/A 5/ 6 2/14  
HATTERAS CG 1400 53 61 360/ 12/ 14 1020.3  
DIAMOND BUOY 1300 54 73 360/ 17/ 21 1018.5 6/ 7 2/ 9  
CAPE LOOKOUT 1400 55 40/ 12/ 15 1020.2  
BEAUFORT LAB 1400 57 62 360/ 10/ 13 1019.7  
30 SE NEW RIVER 1400 58 66 30/ 16/ 19 1020.1 4/ 4 2/ 8  
5 SE WRIGHTSVILL 1400 58 60 60/ 16/ 19 1020.0  
FRYING PAN BUOY 1400 63 67 50/ 19/ 23 1018.4 5/ 5 2/ 8  
BUOY 41001 NOT AVBL  
BUOY 41002 NOT AVBL  
BUOY 41004 1400 67 70 40/ 17/ 21 1017.2 3/ 4 2/ 8  
 

 
 
CLICK HERE TO GO TO PREVIOUS BULLETINS.

The Nexlab NC Page Main Text Page